Home   Weather   Bethlehem   Past weeks

Flag for Palestinian Territories Past Weather in Bethlehem, West Bank, Palestinian Territories — Yesterday and Last 2 Weeks

73 °F


Feels Like: 76 °F
Forecast: 63 / 74 °F
Wind: 3 mph from North

Location: Ben Gurion International Airport

Current Time: Oct 26, 2016 at 10:15:19 PM

Latest Report: Oct 26, 2016 at 9:20 PM

Visibility: 10 mi

Pressure: 29.86 "Hg (27.38 "Hg at 753m altitude)

Humidity: 65%

Dew Point: 61 °F

Location of BethlehemLocation

Past Weather in Bethlehem — Graph


Bethlehem Temperature Yesterday

Maximum temperature yesterday: 81 °F (at 11:20 AM)
Minimum temperature yesterday: 66 °F (at 7:20 AM)
Average temperature yesterday: 74 °F

High & Low Weather Summary for the Past Weeks

High91 °F (Oct 13, 11:50 AM)89% (Oct 14, 11:50 PM)30.07 "Hg (Oct 14, 11:50 PM)
Low63 °F (Oct 16, 6:50 AM)22% (Oct 14, 10:50 AM)29.80 "Hg (Oct 26, 2:20 PM)
Average75 °F62%29.95 "Hg
* Reported Oct 12 7:50 AM — Oct 26 8:50 PM, Bethlehem, Weather by CustomWeather, © 2016

Note: Actual official high and low records may vary slightly from our data, if they occured in-between our weather recording intervals... More about our weather records


Bethlehem Weather History for the Previous 24 Hours

Scroll right to see more
Time TempWeatherWind HumidityBarometerVisibility
8:50 PM
Wed, Oct 26
75 °FClear.6 mph61%29.86 "Hg10 mi
8:20 PM75 °FClear.5 mph61%29.86 "Hg10 mi
7:50 PM75 °FClear.7 mph61%29.86 "Hg10 mi
7:20 PM77 °FClear.8 mph61%29.86 "Hg10 mi
6:50 PM77 °FClear.6 mph57%29.86 "Hg10 mi
6:20 PM77 °FClear.10 mph57%29.83 "Hg10 mi
5:50 PM79 °FSunny.7 mph54%29.83 "Hg10 mi
5:20 PM81 °FSunny.13 mph48%29.83 "Hg10 mi
4:50 PM81 °FSunny.12 mph51%29.83 "Hg10 mi
4:20 PM81 °FSunny.14 mph54%29.83 "Hg10 mi
3:50 PM82 °FSunny.15 mph48%29.83 "Hg10 mi
3:20 PM82 °FSunny.14 mph45%29.83 "Hg10 mi
2:50 PM84 °FSunny.14 mph43%29.83 "Hg10 mi
2:20 PM82 °FSunny.16 mph45%29.80 "Hg10 mi
1:50 PM84 °FSunny.13 mph45%29.83 "Hg10 mi
1:20 PM84 °FSunny.14 mph45%29.83 "Hg10 mi
12:50 PM86 °FSunny.10 mph38%29.83 "Hg10 mi
12:20 PM84 °FPassing clouds.9 mph37%29.83 "HgN/A
11:50 AM82 °FSunny.6 mph42%29.86 "Hg10 mi
11:20 AM81 °FPassing clouds.7 mph42%29.86 "HgN/A
10:50 AM79 °FSunny.3 mph48%29.86 "Hg10 mi
10:20 AM79 °FSunny.2 mph51%29.86 "Hg10 mi
9:50 AM75 °FSunny.1 mph54%29.86 "Hg10 mi
9:20 AM73 °FSunny.1 mph57%29.86 "Hg10 mi
8:50 AM72 °FSunny.1 mph61%29.86 "Hg10 mi
8:20 AM68 °FSunny.1 mph64%29.86 "Hg10 mi
7:50 AM66 °FSunny.2 mph68%29.86 "Hg10 mi
7:20 AM64 °FSunny.1 mph78%29.86 "Hg10 mi
6:50 AM64 °FClear.3 mph78%29.86 "Hg10 mi
6:20 AM64 °FClear.3 mph78%29.83 "Hg10 mi
5:50 AM64 °FClear.3 mph78%29.83 "Hg10 mi
5:20 AM66 °FClear.3 mph73%29.83 "Hg10 mi
4:50 AM66 °FClear.3 mph73%29.83 "Hg10 mi
4:20 AM64 °FClear.3 mph78%29.83 "Hg10 mi
3:50 AM64 °FClear.2 mph78%29.83 "Hg10 mi
3:20 AM68 °FClear.3 mph73%29.83 "Hg10 mi
2:50 AM68 °FClear.5 mph73%29.83 "Hg10 mi
2:20 AM68 °FClear.3 mph78%29.86 "Hg10 mi
1:50 AM68 °FClear.3 mph78%29.86 "Hg10 mi
1:20 AM68 °FClear.2 mph78%29.86 "Hg10 mi
12:50 AM66 °FClear.2 mph83%29.86 "Hg10 mi
12:20 AM70 °FClear.5 mph78%29.86 "Hg10 mi
11:50 PM
Tue, Oct 25
70 °FClear.2 mph78%29.86 "Hg10 mi
11:20 PM70 °FClear.3 mph78%29.86 "Hg10 mi
10:50 PM72 °FClear.2 mph78%29.86 "Hg10 mi
10:20 PM73 °FClear.3 mph74%29.86 "Hg10 mi
Weather by CustomWeather, © 2016

See weather overviewHow to use our weather pages